Weather History for Myrtle Beach, SC

Change the Weather History Date:

Thursday, January 31, 2013

  Actual Average Record
Temperature  
Mean Temperature 53 °F -  
Max Temperature 64 °F 54 °F 75 °F (1950)
Min Temperature 42 °F 35 °F 17 °F (1952)
Degree Days  
Heating Degree Days 12    
Growing Degree Days 3 (Base 50)    
Moisture  
Dew Point 37 °F    
Average Humidity 62    
Maximum Humidity 94    
Minimum Humidity 28    
Precipitation  
Precipitation 0.19 in - - ()
Sea Level Pressure  
Sea Level Pressure 29.87 in    
Wind  
Wind Speed 18 mph (WSW)    
Max Wind Speed 30 mph    
Max Gust Speed 48 mph    
Visibility 9 miles    
Events      
Averages and records for this station are not official NWS values.
T = Trace of Precipitation, MM = Missing Value Source: NWS Daily Summary

Daily Weather History Graph

Daily Weather History Graph

Search for Another Location

Airport:

Trip Planner

Search our weather history database for the weather conditions in past years. The results will help you decide how hot, cold, wet, or windy it might be!

Date:

Astronomy

Jan. 31, 2013 Rise Set
Actual Time 7:12 AM EST 5:46 PM EST
Civil Twilight 6:46 AM EST 6:12 PM EST
Nautical Twilight 6:16 AM EST 6:42 PM EST
Astronomical Twilight 5:47 AM EST 7:11 PM EST
Moon 10:28 PM EST (1/31) 9:27 AM EST (1/31)
Length of Visible Light 11h 25m
Length of Day
10h 33m
Waning Gibbous, 80% of the Moon is Illuminated
Jan 31
Waning Gibbous
Feb 3
Last Quarter
Feb 10
New
Feb 17
First Quarter
Feb 25
Full

Hourly Weather History & Observations

Time (EST) Temp. Windchill Dew Point Humidity Pressure Visibility Wind Dir Wind Speed Gust Speed Precip Events Conditions
12:15 AM 64.4 °F - 60.8 °F 88% 29.62 in 7.0 mi South 21.9 mph 28.8 mph N/A   Overcast
12:35 AM 64.4 °F - 62.6 °F 94% 29.63 in 4.0 mi SSW 29.9 mph 38.0 mph 0.01 in   Mostly Cloudy
12:55 AM 59.0 °F - 53.6 °F 82% 29.68 in 5.0 mi West 24.2 mph 48.3 mph 0.13 in   Overcast
1:15 AM 55.4 °F - 53.6 °F 94% 29.69 in 7.0 mi West 24.2 mph 33.4 mph 0.01 in   Overcast
1:35 AM 55.4 °F - 51.8 °F 88% 29.69 in 7.0 mi West 20.7 mph 29.9 mph 0.02 in   Overcast
1:55 AM 53.6 °F - 51.8 °F 94% 29.68 in 7.0 mi West 17.3 mph 29.9 mph 0.03 in   Overcast
2:15 AM 53.6 °F - 51.8 °F 94% 29.69 in 8.0 mi West 17.3 mph 24.2 mph N/A   Overcast
2:35 AM 53.6 °F - 51.8 °F 94% 29.71 in 7.0 mi WSW 19.6 mph 25.3 mph 0.03 in   Overcast
2:55 AM 53.6 °F - 48.2 °F 82% 29.71 in 10.0 mi WSW 16.1 mph 26.5 mph 0.03 in   Overcast
3:15 AM 53.6 °F - 46.4 °F 77% 29.72 in 10.0 mi WSW 13.8 mph 25.3 mph N/A   Overcast
3:35 AM 53.6 °F - 46.4 °F 77% 29.73 in 10.0 mi West 18.4 mph 23.0 mph N/A   Overcast
3:55 AM 53.6 °F - 46.4 °F 77% 29.73 in 10.0 mi WSW 19.6 mph 26.5 mph N/A   Overcast
4:15 AM 53.6 °F - 46.4 °F 77% 29.74 in 10.0 mi WSW 12.7 mph 21.9 mph N/A   Scattered Clouds
4:35 AM 51.8 °F - 46.4 °F 82% 29.75 in 10.0 mi SW 12.7 mph 19.6 mph N/A   Partly Cloudy
4:55 AM 51.8 °F - 46.4 °F 82% 29.75 in 10.0 mi WSW 15.0 mph 20.7 mph N/A   Scattered Clouds
5:15 AM 51.8 °F - 46.4 °F 82% 29.75 in 10.0 mi WSW 13.8 mph 23.0 mph N/A   Mostly Cloudy
5:35 AM 51.8 °F - 46.4 °F 82% 29.76 in 10.0 mi WSW 15.0 mph 25.3 mph N/A   Scattered Clouds
5:55 AM 51.8 °F - 44.6 °F 76% 29.78 in 10.0 mi WSW 18.4 mph 32.2 mph N/A   Scattered Clouds
6:45 AM 48.2 °F - 33.8 °F 58% 29.83 in 10.0 mi West 18.4 mph 33.4 mph N/A   Clear
7:45 AM 46.4 °F 39.5 °F 30.2 °F 53% 29.88 in 10.0 mi West 17.3 mph 26.5 mph N/A   Clear
8:45 AM 46.4 °F 40.4 °F 32.0 °F 57% 29.91 in 10.0 mi WSW 13.8 mph 20.7 mph N/A   Clear
9:45 AM 48.2 °F - 30.2 °F 50% 29.95 in 10.0 mi West 15.0 mph 21.9 mph N/A   Clear
10:45 AM 50.0 °F - 30.2 °F 47% 29.96 in 10.0 mi West 18.4 mph 25.3 mph N/A   Clear
11:45 AM 51.8 °F - 28.4 °F 41% 29.96 in 10.0 mi West 11.5 mph 19.6 mph N/A   Clear
12:45 PM 53.6 °F - 26.6 °F 35% 29.95 in 10.0 mi WNW 13.8 mph 21.9 mph N/A   Clear
1:45 PM 55.4 °F - 24.8 °F 31% 29.94 in 10.0 mi West 12.7 mph 23.0 mph N/A   Clear
2:50 PM 55.4 °F - 24.8 °F 31% 29.94 in 10.0 mi WNW 17.3 mph 25.3 mph N/A   Clear
3:45 PM 55.4 °F - 23.0 °F 29% 29.96 in 10.0 mi West 15.0 mph 24.2 mph N/A   Clear
4:50 PM 53.6 °F - 21.2 °F 28% 29.98 in 10.0 mi WSW 15.0 mph 23.0 mph N/A   Clear
5:50 PM 51.8 °F - 21.2 °F 30% 30.02 in 10.0 mi WNW 13.8 mph 23.0 mph N/A   Clear
6:55 PM 46.4 °F 42.9 °F 21.2 °F 37% 30.06 in 10.0 mi Variable 6.9 mph - N/A   Clear
7:45 PM 46.4 °F 42.9 °F 24.8 °F 43% 30.08 in 10.0 mi WSW 6.9 mph - N/A   Clear
8:45 PM 44.6 °F 40.7 °F 24.8 °F 46% 30.09 in 10.0 mi WSW 6.9 mph - N/A   Clear
9:45 PM 42.8 °F 38.6 °F 24.8 °F 49% 30.11 in 10.0 mi WSW 6.9 mph - N/A   Clear
10:55 PM 44.6 °F 40.7 °F 24.8 °F 46% 30.13 in 10.0 mi West 6.9 mph - N/A   Clear
11:15 PM 44.6 °F 39.7 °F 24.8 °F 46% 30.13 in 10.0 mi WSW 9.2 mph - N/A   Clear
11:35 PM 44.6 °F 39.2 °F 24.8 °F 46% 30.13 in 10.0 mi WSW 10.4 mph - N/A   Clear
11:55 PM 44.6 °F 38.8 °F 24.8 °F 46% 30.14 in 10.0 mi WSW 11.5 mph - N/A   Clear